Regional Weather Roundup
Issued by NWS

Home | Current Version | Previous Version | Text Only | Print | Product List | Glossary Off
Versions: 1 2 3 4 5 6 7 8 9 10 11 12 13 14 15 16 17 18 19 20 21 22 23 24 25 26 27

000
ASUS45 KCYS 230510
RWRWY

WYOMING REGIONAL WEATHER ROUNDUP
NATIONAL WEATHER SERVICE CHEYENNE WY
1100 PM MDT TUE APR 22 2014

NOTE:  "FAIR" INDICATES FEW OR NO CLOUDS BELOW 12,000 FEET
WITH NO SIGNIFICANT WEATHER AND/OR OBSTRUCTIONS TO VISIBILITY.

WYZ001-230600-
YELLOWSTONE NATIONAL PARK

CITY           SKY/WX    TMP DP  RH WIND       PRES   REMARKS
LK YELLOWSTONE   N/A     31  27  85 VRB6      29.68S WCI  25
W YELLOWSTONE  NOT AVBL

$$
WYZ002>013-054>058-071-098>099-230600-
NORTHERN WYOMING

CITY           SKY/WX    TMP DP  RH WIND       PRES   REMARKS
JACKSON        CLOUDY    37  34  87 S12       29.70R WCI  30
CODY           MOCLDY    57  34  41 W14G32    29.43F
GREYBULL       MOCLDY    62  38  40 S9        29.40R
WORLAND        MOCLDY    60  34  37 SW10      29.44R
SHERIDAN         N/A     48  30  49 S14         N/A
BUFFALO        PTCLDY    51  38  60 S13       29.46F
GILLETTE       CLOUDY    56  43  61 S21       29.48F
HULETT         FAIR      66  36  32 S15       29.51
NEWCASTLE      FAIR      61  37  41 SE16      29.55

$$
WYZ014>020-022>026-101>103-230600-
CENTRAL WYOMING

CITY           SKY/WX    TMP DP  RH WIND       PRES   REMARKS
BIG PINEY      CLOUDY    39  29  67 N17G28    29.68R WCI  30
PINEDALE       CLOUDY    37  30  75 W16G22    29.69R WCI  28
DUBOIS         CLOUDY    39  36  87 NW5       29.58F
LANDER         LGT RAIN  49  41  74 SW20G37   29.51S
RIVERTON       CLOUDY    54  35  48 W13       29.56R
CASPER         MOCLDY    60  26  27 S17       29.54S
DOUGLAS        CLOUDY    57  40  52 S10       29.58F

$$
WYZ021-027>030-104>119-230600-
SOUTHERN WYOMING

CITY           SKY/WX    TMP DP  RH WIND       PRES   REMARKS
EVANSTON       LGT SNOW  34  31  88 W17       29.82R FOG     WCI  23
KEMMERER       FLURRIES  32  30  93 W22G28    29.76R WCI  19
FORT BRIDGER   MOCLDY    37  35  91 W18       29.81R WCI  27
ROCK SPRINGS   LGT RAIN  43  37  79 SW22G31   29.72R
DIXON          FAIR      61  29  29 S29G39    29.71S
RAWLINS        PTCLDY    53  25  33 S13       29.64F
SARATOGA       FAIR      54  30  40 S18       29.68F
LARAMIE        CLOUDY    50  29  44 SE14G22   29.72F
CHEYENNE       CLOUDY    55  34  45 W5        29.69F
TORRINGTON     MOCLDY    57  39  51 SE7       29.57F
PINE BLUFFS    FAIR      50  37  62 CALM      29.65F

$$



USA.gov is the U.S. government's official web portal to all federal, state and local government web resources and services.